{"data":{"norad_id":48117,"intl_designator":"2021-027AB","name":"STARLINK-2455","alt_names":[],"object_type":"PAYLOAD","status":"ACTIVE","operator":null,"country":"US","launch_date":"2021-04-07","launch_site_code":"AFETR","launch_vehicle":null,"mission":null,"orbit_class":"UNKNOWN","rcs_meters":null,"size_class":null,"mass_kg":null,"dimensions":null,"purposes":["comms"],"wikipedia_slug":null,"has_3d_model":false,"image_url":null,"decayed_at":null,"tle_current":{"epoch":"2026-05-25T01:19:32.019744Z","epoch_age_seconds":67372,"freshness":"FRESH","line1":"1 48117U 21027AB  26145.05523171  .00000262  00000+0  20198-4 0  9998","line2":"2 48117  53.1598 157.3067 0001164  58.6509 301.4607 15.31709395284387","mean_motion":15.31709395,"eccentricity":0.0001164,"inclination_deg":53.1598,"raan_deg":157.3067,"arg_perigee_deg":58.6509,"mean_anomaly_deg":301.4607,"bstar":2.0198e-5,"rev_number":28438,"period_min":94.012611315216,"perigee_km":469.91478334031,"apogee_km":471.50919538504,"semimajor_km":6848.8489893627,"source":"CELESTRAK","updated_at":"2026-05-25T13:38:16.645314Z"}}}